This is the latest recevied weather packets stored in our database for station/object KG2V. If no packets are shown the sender has not sent any weather packets the latest 10 day(s).
| Time | Temp. | Humidity | Pressure | Rain* | Wind** | Luminosity | Snow |
|---|---|---|---|---|---|---|---|
| 1777820982 | 10° C | 57% | 1008.9 hPa | 0 mm | - | 286 W/m² | - |
| 1777820679 | 10° C | 58% | 1008.9 hPa | 0 mm | - | 396 W/m² | - |
| 1777820374 | 10° C | 57% | 1008.8 hPa | 0 mm | - | 368 W/m² | - |
| 1777820072 | 9.44° C | 61% | 1009 hPa | 0 mm | - | 242 W/m² | - |
| 1777819769 | 9.44° C | 63% | 1009 hPa | 0 mm | - | 83 W/m² | - |
| 1777819467 | 8.89° C | 58% | 1008.9 hPa | 0 mm | - | 248 W/m² | - |
| 1777819165 | 9.44° C | 60% | 1009.2 hPa | 0 mm | - | 61 W/m² | - |
| 1777818861 | 9.44° C | 57% | 1009.3 hPa | 0 mm | - | 172 W/m² | - |
| 1777818557 | 8.89° C | 56% | 1009.3 hPa | 0 mm | - | 79 W/m² | - |
| 1777818255 | 8.89° C | 59% | 1009.1 hPa | 0 mm | - | 189 W/m² | - |
| 1777817951 | 10° C | 57% | 1009.2 hPa | 0 mm | - | 321 W/m² | - |
| 1777817649 | 8.89° C | 56% | 1009.2 hPa | 0 mm | - | 313 W/m² | - |
| 1777817345 | 8.89° C | 62% | 1009.3 hPa | 0 mm | - | 168 W/m² | - |
| 1777817042 | 8.89° C | 59% | 1009.3 hPa | 0 mm | - | 49 W/m² | - |
| 1777816738 | 8.33° C | 62% | 1009.3 hPa | 0 mm | - | 134 W/m² | - |
| 1777816435 | 8.33° C | 62% | 1009.6 hPa | 0 mm | - | 142 W/m² | - |
| 1777816134 | 7.78° C | 65% | 1009.2 hPa | 0 mm | - | 255 W/m² | - |
| 1777815831 | 7.78° C | 65% | 1009.6 hPa | 0 mm | - | 89 W/m² | - |
| 1777815528 | 7.78° C | 63% | 1009.6 hPa | 0 mm | - | 70 W/m² | - |
| 1777815225 | 7.22° C | 66% | 1009.8 hPa | 0 mm | - | 285 W/m² | - |
| 1777814921 | 7.22° C | 65% | 1009.9 hPa | 0 mm | - | 60 W/m² | - |
| 1777814618 | 7.22° C | 68% | 1010 hPa | 0 mm | - | 168 W/m² | - |
| 1777814315 | 6.67° C | 67% | 1009.9 hPa | 0 mm | - | 62 W/m² | - |
| 1777814012 | 6.67° C | 68% | 1009.9 hPa | 0 mm | - | 43 W/m² | - |
| 1777813709 | 6.67° C | 68% | 1009.7 hPa | 0 mm | - | 43 W/m² | - |
* Rain latest hour (hover to see other rain measurements)
** Current wind speed in m/s (hover to see current wind gust speed)